Flag Weather past 2 weeks in Saint John, New Brunswick, Canada

Now
34 °F

Light snow. Passing clouds.


Feels Like: 26 °F
Forecast: 32 / 42 °F
Wind: 9 mph from West

Location: Saint John

Current Time: Nov 23, 2014 at 2:10:35 AM

Latest Report: Nov 23, 2014 at 1:00 AM


Visibility: 2 mi

Pressure: 29.89 "Hg

Humidity: 75%

Dew point: 27 °F

Location of Saint JohnLocation

Historic Weather in Saint John — Graph

°F

Saint John temperature yesterday

Maximum temperature yesterday: 39 °F (at 8:00 PM)
Minimum temperature yesterday: 14 °F (at 6:00 AM)
Average temperature yesterday: 26 °F

Past Weeks' High & Low Weather Summary

 TemperatureHumidityPressure
High55 °F (Nov 18, 1:00 AM)100% (Nov 9, 1:00 AM)30.35 "Hg (Nov 9, 1:00 AM)
Low12 °F (Nov 16, 5:00 AM)38% (Nov 19, 3:00 PM)29.27 "Hg (Nov 18, 6:54 AM)
Average33 °F79%29.93 "Hg
* Reported Midnight between Nov 7 and Nov 8 — Midnight between Nov 22 and Nov 23, Saint John, Weather by CustomWeather, © 2014

Note: Actual official high and low records may vary slightly from our data, if they occured in-between our weather recording intervals... More about our weather records

Advertising

Saint John weather history for previous 24 hours

 ConditionsComfort  
Time TempWeatherWind HumidityBarometerVisibility
12:00 AM
Nov 23
37 °FOvercast.10 mph52%29.89 "Hg15 mi
11:00 PM
Nov 22
39 °FOvercast.13 mph61%29.89 "Hg15 mi
10:00 PM37 °FOvercast.16 mph65%29.88 "Hg15 mi
9:00 PM37 °FMostly cloudy.18 mph60%29.89 "Hg15 mi
8:00 PM39 °FMostly cloudy.17 mph65%29.90 "Hg15 mi
7:00 PM37 °FMostly cloudy.15 mph75%29.91 "Hg12 mi
6:00 PM37 °FMostly cloudy.20 mph70%29.94 "Hg15 mi
5:00 PM37 °FMostly cloudy.23 mph70%29.95 "Hg15 mi
4:00 PM36 °FPartly sunny.21 mph65%29.99 "Hg15 mi
3:00 PM32 °FBroken clouds.18 mph60%30.03 "Hg15 mi
2:00 PM28 °FBroken clouds.17 mph59%30.08 "Hg15 mi
1:00 PM25 °FBroken clouds.10 mph50%30.13 "Hg15 mi
12:00 PM23 °FOvercast.7 mph50%30.17 "Hg15 mi
11:00 AM21 °FPartly sunny.8 mph54%30.22 "Hg15 mi
10:00 AM19 °FPartly sunny.13 mph53%30.23 "Hg15 mi
9:00 AM18 °FPassing clouds.15 mph62%30.24 "Hg15 mi
8:00 AM16 °FPassing clouds.12 mph67%30.24 "Hg15 mi
7:00 AM14 °FPassing clouds.10 mph73%30.24 "Hg15 mi
6:00 AM14 °FClear.8 mph73%30.23 "Hg15 mi
5:00 AM16 °FClear.9 mph67%30.22 "Hg15 mi
4:00 AM16 °FClear.10 mph67%30.21 "Hg15 mi
3:00 AM16 °FClear.12 mph67%30.21 "Hg15 mi
2:00 AM18 °FClear.13 mph62%30.18 "Hg15 mi
Weather by CustomWeather, © 2014

See weather overviewHow to use our weather pages